RYR3KM LEMD-GCLP

Flight info

Callsign RYR3KM
Flight time 2h 33m
Altitude 35000
Route VTB DCT INPAN DCT CRISA DCT HIJ DCT SVL DCT CLANA DCT KORNO UN857 TERTO
Aircraft B738/M-SDE2E3FGHIRWXY/LB1

Departure

Time 2026-05-06 15:27
Airport Adolfo Suárez Madrid–Barajas Airport (LEMD)

Arrival

Time 2026-05-06 18:00
Airport Gran Canaria Airport (GCLP)
Time Latitude Longitude Altitude Speed Heading
2026-05-06 14:56 40.46536 -3.56804 1975 ft 0 kts 271°
2026-05-06 15:15 40.46536 -3.56799 1971 ft 3 kts 271°
2026-05-06 15:15 40.46535 -3.56764 1973 ft 4 kts 272°
2026-05-06 15:15 40.46533 -3.56734 1976 ft 4 kts 297°
2026-05-06 15:15 40.46516 -3.56716 1976 ft 4 kts 357°
2026-05-06 15:16 40.46499 -3.56717 1974 ft 1 kts
2026-05-06 15:16 40.46497 -3.56717 1974 ft 0 kts
2026-05-06 15:18 40.46515 -3.56715 1976 ft 5 kts
2026-05-06 15:18 40.46564 -3.56712 1976 ft 8 kts
2026-05-06 15:19 40.46623 -3.56708 1974 ft 9 kts
2026-05-06 15:19 40.46681 -3.56704 1972 ft 9 kts
2026-05-06 15:19 40.46762 -3.56694 1973 ft 14 kts 12°
2026-05-06 15:19 40.46807 -3.56593 1973 ft 14 kts 73°
2026-05-06 15:20 40.46888 -3.56552 1974 ft 13 kts
2026-05-06 15:20 40.46977 -3.56548 1978 ft 13 kts 360°
2026-05-06 15:20 40.47063 -3.56568 1977 ft 12 kts 340°
2026-05-06 15:20 40.47145 -3.56625 1980 ft 16 kts 325°
2026-05-06 15:21 40.47247 -3.56728 1984 ft 21 kts 322°
2026-05-06 15:21 40.47370 -3.56853 1987 ft 24 kts 322°
2026-05-06 15:21 40.47505 -3.56990 1991 ft 25 kts 322°
2026-05-06 15:21 40.47644 -3.57131 1996 ft 24 kts 322°
2026-05-06 15:22 40.47772 -3.57262 2000 ft 23 kts 322°
2026-05-06 15:22 40.47897 -3.57389 2002 ft 23 kts 322°
2026-05-06 15:22 40.48033 -3.57528 2000 ft 27 kts 322°
2026-05-06 15:22 40.48182 -3.57678 1996 ft 26 kts 322°
2026-05-06 15:23 40.48322 -3.57819 1990 ft 25 kts 324°
2026-05-06 15:23 40.48460 -3.57939 1993 ft 23 kts 327°
2026-05-06 15:23 40.48597 -3.58041 2002 ft 22 kts 345°
2026-05-06 15:23 40.48749 -3.58051 2002 ft 22 kts 359°
2026-05-06 15:24 40.48898 -3.58052 2002 ft 21 kts 360°
2026-05-06 15:24 40.49043 -3.58052 2000 ft 20 kts 360°
2026-05-06 15:24 40.49183 -3.58053 2002 ft 20 kts
2026-05-06 15:24 40.49244 -3.57933 1998 ft 14 kts 90°
2026-05-06 15:25 40.49244 -3.57862 1995 ft 1 kts 90°
2026-05-06 15:25 40.49244 -3.57837 1994 ft 6 kts 90°
2026-05-06 15:25 40.49245 -3.57732 1989 ft 17 kts 89°
2026-05-06 15:25 40.49273 -3.57555 1987 ft 22 kts 57°
2026-05-06 15:26 40.49398 -3.57452 1982 ft 22 kts 358°
2026-05-06 15:26 40.49677 -3.57454 1984 ft 71 kts 360°
2026-05-06 15:26 40.50395 -3.57460 1991 ft 133 kts 359°
2026-05-06 15:26 40.51496 -3.57470 2056 ft 178 kts 359°
2026-05-06 15:27 40.52774 -3.57476 2616 ft 191 kts
2026-05-06 15:27 40.54102 -3.57462 3476 ft 185 kts 360°
2026-05-06 15:27 40.55393 -3.57654 4127 ft 198 kts 338°
2026-05-06 15:27 40.56491 -3.58838 4404 ft 217 kts 300°
2026-05-06 15:28 40.57162 -3.60646 4851 ft 225 kts 306°
2026-05-06 15:28 40.58378 -3.61960 5386 ft 230 kts 326°
2026-05-06 15:28 40.59663 -3.63220 6016 ft 231 kts 321°
2026-05-06 15:28 40.60906 -3.64588 6557 ft 238 kts 312°
2026-05-06 15:29 40.61624 -3.66586 6797 ft 253 kts 274°
2026-05-06 15:29 40.61255 -3.68913 7080 ft 272 kts 238°
2026-05-06 15:29 40.59964 -3.70747 7723 ft 278 kts 213°
2026-05-06 15:29 40.58187 -3.71747 8482 ft 281 kts 191°
2026-05-06 15:30 40.56236 -3.72009 9242 ft 284 kts 182°
2026-05-06 15:30 40.54245 -3.72034 9976 ft 288 kts 180°
2026-05-06 15:30 40.52206 -3.72015 10441 ft 302 kts 180°
2026-05-06 15:30 40.50029 -3.72001 10617 ft 325 kts 180°
2026-05-06 15:31 40.47719 -3.72008 11058 ft 337 kts 180°
2026-05-06 15:31 40.45356 -3.72035 11732 ft 341 kts 181°
2026-05-06 15:31 40.42978 -3.72078 12511 ft 342 kts 181°
2026-05-06 15:32 40.38171 -3.72194 13927 ft 349 kts 181°
2026-05-06 15:32 40.35733 -3.72261 14551 ft 352 kts 181°
2026-05-06 15:32 40.33306 -3.72330 15161 ft 355 kts 182°
2026-05-06 15:32 40.30806 -3.72403 15777 ft 359 kts 182°
2026-05-06 15:33 40.28330 -3.72477 16382 ft 362 kts 182°
2026-05-06 15:33 40.25799 -3.72553 16995 ft 366 kts 183°
2026-05-06 15:33 40.23244 -3.72630 17608 ft 369 kts 183°
2026-05-06 15:33 40.20630 -3.72709 18208 ft 373 kts 183°
2026-05-06 15:34 40.18026 -3.72787 18725 ft 376 kts 184°
2026-05-06 15:34 40.15408 -3.72865 19267 ft 378 kts 184°
2026-05-06 15:34 40.12800 -3.72943 19803 ft 380 kts 184°
2026-05-06 15:34 40.10144 -3.73022 20328 ft 383 kts 184°
2026-05-06 15:35 40.07470 -3.73102 20825 ft 386 kts 185°
2026-05-06 15:35 40.04778 -3.73182 21346 ft 388 kts 185°
2026-05-06 15:35 40.02067 -3.73263 21854 ft 391 kts 185°
2026-05-06 15:35 39.99336 -3.73344 22343 ft 394 kts 185°
2026-05-06 15:36 39.96586 -3.73426 22817 ft 397 kts 185°
2026-05-06 15:36 39.93819 -3.73507 23304 ft 399 kts 185°
2026-05-06 15:36 39.91033 -3.73590 23732 ft 402 kts 185°
2026-05-06 15:36 39.88230 -3.73672 24139 ft 404 kts 185°
2026-05-06 15:37 39.85416 -3.73755 24558 ft 405 kts 185°
2026-05-06 15:37 39.82593 -3.73838 24969 ft 407 kts 185°
2026-05-06 15:37 39.79764 -3.73921 25350 ft 409 kts 185°
2026-05-06 15:37 39.76913 -3.74005 25730 ft 411 kts 185°
2026-05-06 15:38 39.74049 -3.74089 26093 ft 413 kts 185°
2026-05-06 15:38 39.71174 -3.74174 26483 ft 414 kts 185°
2026-05-06 15:38 39.68285 -3.74258 26870 ft 415 kts 185°
2026-05-06 15:38 39.65391 -3.74343 27229 ft 417 kts 185°
2026-05-06 15:39 39.62490 -3.74428 27586 ft 419 kts 185°
2026-05-06 15:39 39.59581 -3.74626 27911 ft 417 kts 193°
2026-05-06 15:39 39.56829 -3.75694 28227 ft 412 kts 208°
2026-05-06 15:39 39.54368 -3.77545 28576 ft 408 kts 220°
2026-05-06 15:40 39.52287 -3.80028 28892 ft 407 kts 227°
2026-05-06 15:40 39.50308 -3.82659 29233 ft 408 kts 227°
2026-05-06 15:40 39.48330 -3.85296 29562 ft 409 kts 227°
2026-05-06 15:40 39.46338 -3.87940 29826 ft 411 kts 227°
2026-05-06 15:41 39.44350 -3.90560 30077 ft 413 kts 227°
2026-05-06 15:41 39.42328 -3.93209 30336 ft 414 kts 227°
2026-05-06 15:41 39.40299 -3.95858 30593 ft 415 kts 226°
2026-05-06 15:41 39.38262 -3.98508 30840 ft 416 kts 226°
2026-05-06 15:42 39.36216 -4.01164 31067 ft 417 kts 226°
2026-05-06 15:42 39.34164 -4.03826 31284 ft 419 kts 226°
2026-05-06 15:42 39.32105 -4.06494 31520 ft 419 kts 226°
2026-05-06 15:42 39.30052 -4.09153 31828 ft 418 kts 226°
2026-05-06 15:43 39.28004 -4.11802 32207 ft 415 kts 226°
2026-05-06 15:43 39.25971 -4.14429 32606 ft 412 kts 226°
2026-05-06 15:43 39.23956 -4.17030 33013 ft 408 kts 226°
2026-05-06 15:43 39.21951 -4.19618 33308 ft 408 kts 226°
2026-05-06 15:44 39.19946 -4.22203 33550 ft 408 kts 226°
2026-05-06 15:44 39.17943 -4.24786 33824 ft 407 kts 226°
2026-05-06 15:44 39.15918 -4.27392 34097 ft 405 kts 226°
2026-05-06 15:44 39.13950 -4.29924 34274 ft 406 kts 226°
2026-05-06 15:45 39.11943 -4.32504 34403 ft 408 kts 226°
2026-05-06 15:45 39.09934 -4.35084 34572 ft 408 kts 227°
2026-05-06 15:45 39.07927 -4.37658 34819 ft 407 kts 227°
2026-05-06 15:45 39.05919 -4.40233 34872 ft 410 kts 226°
2026-05-06 15:46 39.01851 -4.45442 34884 ft 413 kts 226°
2026-05-06 15:46 38.97793 -4.50630 34882 ft 411 kts 226°
2026-05-06 15:47 38.93743 -4.55796 34890 ft 410 kts 226°
2026-05-06 15:47 38.89693 -4.60948 34883 ft 410 kts 226°
2026-05-06 15:48 38.85636 -4.66098 34891 ft 410 kts 226°
2026-05-06 15:48 38.81569 -4.71254 34887 ft 411 kts 226°
2026-05-06 15:49 38.77495 -4.76412 34886 ft 411 kts 226°
2026-05-06 15:49 38.73421 -4.81560 34887 ft 411 kts 226°
2026-05-06 15:50 38.69373 -4.86668 34885 ft 411 kts 226°
2026-05-06 15:50 38.65275 -4.91831 34883 ft 411 kts 226°
2026-05-06 15:51 38.61891 -4.96087 34895 ft 411 kts 226°
2026-05-06 15:51 38.57809 -5.01216 34886 ft 412 kts 226°
2026-05-06 15:52 38.53054 -5.07175 34878 ft 412 kts 226°
2026-05-06 15:52 38.49260 -5.10951 34883 ft 415 kts 214°
2026-05-06 15:53 38.44070 -5.14252 34875 ft 417 kts 209°
2026-05-06 15:53 38.38829 -5.17459 34891 ft 417 kts 209°
2026-05-06 15:54 38.33637 -5.20660 34894 ft 417 kts 210°
2026-05-06 15:54 38.28381 -5.23912 34885 ft 417 kts 210°
2026-05-06 15:55 38.23165 -5.27138 34872 ft 417 kts 210°
2026-05-06 15:55 38.17948 -5.30359 34893 ft 417 kts 210°
2026-05-06 15:56 38.12766 -5.33554 34908 ft 417 kts 209°
2026-05-06 15:56 38.07536 -5.36773 34890 ft 418 kts 209°
2026-05-06 15:57 38.02286 -5.40005 34870 ft 420 kts 209°
2026-05-06 15:57 37.97020 -5.43232 34892 ft 420 kts 209°
2026-05-06 15:58 37.91730 -5.46471 35066 ft 423 kts 209°
2026-05-06 15:58 37.89087 -5.48087 35288 ft 421 kts 209°
2026-05-06 15:58 37.86455 -5.49695 35440 ft 422 kts 209°
2026-05-06 15:59 37.83809 -5.51311 35559 ft 423 kts 209°
2026-05-06 15:59 37.81160 -5.52928 35714 ft 422 kts 209°
2026-05-06 15:59 37.78523 -5.54535 35991 ft 419 kts 210°
2026-05-06 15:59 37.75889 -5.56140 36138 ft 420 kts 210°
2026-05-06 16:00 37.70604 -5.59358 36378 ft 422 kts 210°
2026-05-06 16:00 37.67970 -5.60959 36560 ft 421 kts 210°
2026-05-06 16:00 37.65329 -5.62563 36692 ft 422 kts 210°
2026-05-06 16:01 37.62685 -5.64168 36815 ft 422 kts 210°
2026-05-06 16:01 37.60039 -5.65773 36872 ft 423 kts 210°
2026-05-06 16:01 37.54733 -5.68988 36881 ft 422 kts 210°
2026-05-06 16:02 37.49457 -5.72179 36883 ft 419 kts 210°
2026-05-06 16:02 37.44221 -5.75359 36886 ft 417 kts 212°
2026-05-06 16:03 37.39558 -5.79541 36896 ft 410 kts 223°
2026-05-06 16:03 37.35220 -5.84228 36890 ft 412 kts 223°
2026-05-06 16:04 37.30850 -5.88909 36886 ft 413 kts 223°
2026-05-06 16:04 37.26454 -5.93587 36887 ft 415 kts 223°
2026-05-06 16:05 37.22035 -5.98273 36892 ft 416 kts 223°
2026-05-06 16:05 37.17602 -6.02965 36892 ft 417 kts 223°
2026-05-06 16:06 37.13185 -6.07633 36891 ft 418 kts 223°
2026-05-06 16:06 37.08734 -6.12329 36892 ft 419 kts 223°
2026-05-06 16:07 37.04277 -6.17025 36899 ft 419 kts 223°
2026-05-06 16:07 36.99819 -6.21715 36903 ft 418 kts 223°
2026-05-06 16:08 36.95337 -6.26422 36904 ft 418 kts 223°
2026-05-06 16:08 36.90909 -6.31065 36909 ft 418 kts 223°
2026-05-06 16:09 36.86422 -6.35763 36915 ft 418 kts 223°
2026-05-06 16:09 36.81994 -6.40392 36912 ft 418 kts 223°
2026-05-06 16:10 36.77542 -6.45038 36912 ft 417 kts 223°
2026-05-06 16:10 36.73095 -6.49672 36905 ft 417 kts 223°
2026-05-06 16:11 36.68616 -6.54333 36920 ft 417 kts 223°
2026-05-06 16:11 36.64187 -6.58934 36907 ft 418 kts 223°
2026-05-06 16:12 36.59723 -6.63565 36911 ft 419 kts 223°
2026-05-06 16:12 36.55243 -6.68207 36903 ft 419 kts 223°
2026-05-06 16:13 36.50758 -6.72844 36916 ft 419 kts 223°
2026-05-06 16:13 36.46270 -6.77472 36926 ft 419 kts 223°
2026-05-06 16:14 36.41776 -6.82098 36922 ft 419 kts 223°
2026-05-06 16:14 36.37287 -6.86714 36911 ft 419 kts 223°
2026-05-06 16:15 36.32786 -6.91337 36936 ft 420 kts 223°
2026-05-06 16:15 36.28284 -6.95953 36918 ft 420 kts 223°
2026-05-06 16:16 36.23774 -7.00571 36928 ft 421 kts 223°
2026-05-06 16:16 36.19260 -7.05185 36935 ft 421 kts 223°
2026-05-06 16:17 36.14740 -7.09799 36931 ft 421 kts 223°
2026-05-06 16:17 36.10228 -7.14397 36937 ft 421 kts 223°
2026-05-06 16:18 36.05710 -7.18994 36937 ft 420 kts 223°
2026-05-06 16:18 36.01193 -7.23584 36927 ft 420 kts 223°
2026-05-06 16:19 35.96676 -7.28166 36939 ft 420 kts 223°
2026-05-06 16:19 35.92154 -7.32747 36939 ft 421 kts 223°
2026-05-06 16:20 35.87627 -7.37328 36941 ft 421 kts 223°
2026-05-06 16:20 35.83092 -7.41907 36939 ft 422 kts 223°
2026-05-06 16:21 35.78537 -7.46464 36945 ft 422 kts 222°
2026-05-06 16:21 35.74001 -7.50978 36945 ft 422 kts 222°
2026-05-06 16:22 35.69435 -7.55522 36947 ft 422 kts 222°
2026-05-06 16:22 35.64868 -7.60063 36953 ft 422 kts 222°
2026-05-06 16:23 35.60295 -7.64605 36944 ft 423 kts 222°
2026-05-06 16:23 35.55714 -7.69147 36950 ft 423 kts 222°
2026-05-06 16:24 35.51122 -7.73693 36949 ft 424 kts 222°
2026-05-06 16:24 35.46531 -7.78233 36945 ft 424 kts 222°
2026-05-06 16:25 35.41933 -7.82772 36949 ft 424 kts 222°
2026-05-06 16:25 35.37345 -7.87331 36953 ft 424 kts 223°
2026-05-06 16:26 35.32778 -7.91900 36953 ft 424 kts 223°
2026-05-06 16:26 35.28216 -7.96458 36952 ft 424 kts 223°
2026-05-06 16:27 35.23648 -8.01011 36954 ft 423 kts 223°
2026-05-06 16:27 35.19087 -8.05548 36946 ft 422 kts 223°
2026-05-06 16:28 35.14535 -8.10069 36956 ft 421 kts 223°
2026-05-06 16:28 35.09990 -8.14575 36954 ft 420 kts 223°
2026-05-06 16:29 35.05480 -8.19042 36957 ft 420 kts 223°
2026-05-06 16:29 35.00941 -8.23530 36960 ft 420 kts 223°
2026-05-06 16:30 34.97143 -8.27280 36963 ft 419 kts 223°
2026-05-06 16:30 34.91880 -8.32469 36957 ft 418 kts 223°
2026-05-06 16:31 34.87359 -8.36920 36951 ft 418 kts 223°
2026-05-06 16:31 34.82841 -8.41362 36969 ft 417 kts 223°
2026-05-06 16:32 34.78322 -8.45798 36961 ft 417 kts 223°
2026-05-06 16:32 34.73799 -8.50232 36970 ft 418 kts 223°
2026-05-06 16:33 34.69269 -8.54666 36961 ft 418 kts 223°
2026-05-06 16:34 34.62465 -8.61314 36961 ft 418 kts 223°
2026-05-06 16:34 34.57931 -8.65736 36965 ft 418 kts 223°
2026-05-06 16:35 34.53394 -8.70155 36964 ft 418 kts 223°
2026-05-06 16:35 34.48885 -8.74542 36960 ft 418 kts 222°
2026-05-06 16:36 34.45082 -8.78235 36965 ft 418 kts 222°
2026-05-06 16:36 34.39784 -8.83347 36959 ft 418 kts 222°
2026-05-06 16:37 34.35963 -8.87015 36961 ft 418 kts 222°
2026-05-06 16:37 34.31406 -8.91385 36967 ft 418 kts 222°
2026-05-06 16:38 34.26852 -8.95750 36967 ft 418 kts 222°
2026-05-06 16:38 34.22329 -9.00081 36967 ft 417 kts 222°
2026-05-06 16:39 34.17746 -9.04465 36970 ft 417 kts 222°
2026-05-06 16:39 34.13227 -9.08780 36939 ft 417 kts 222°
2026-05-06 16:40 34.08681 -9.13114 36959 ft 416 kts 221°
2026-05-06 16:40 34.04139 -9.17438 36970 ft 416 kts 221°
2026-05-06 16:41 33.99598 -9.21755 36970 ft 416 kts 221°
2026-05-06 16:41 33.95057 -9.26065 36972 ft 415 kts 221°
2026-05-06 16:42 33.90517 -9.30372 36970 ft 415 kts 221°
2026-05-06 16:42 33.85978 -9.34674 36942 ft 415 kts 221°
2026-05-06 16:43 33.81443 -9.38965 36963 ft 414 kts 221°
2026-05-06 16:43 33.76909 -9.43246 36972 ft 414 kts 221°
2026-05-06 16:44 33.72378 -9.47518 36966 ft 414 kts 221°
2026-05-06 16:44 33.67852 -9.51781 36971 ft 414 kts 221°
2026-05-06 16:45 33.63321 -9.56045 36974 ft 414 kts 221°
2026-05-06 16:45 33.58783 -9.60310 36976 ft 414 kts 221°
2026-05-06 16:46 33.54250 -9.64565 36965 ft 414 kts 221°
2026-05-06 16:46 33.49748 -9.68785 36975 ft 413 kts 221°
2026-05-06 16:47 33.45209 -9.73034 36978 ft 414 kts 221°
2026-05-06 16:47 33.40669 -9.77278 36973 ft 414 kts 221°
2026-05-06 16:48 33.36132 -9.81513 36975 ft 414 kts 221°
2026-05-06 16:48 33.31587 -9.85751 36973 ft 414 kts 221°
2026-05-06 16:49 33.27036 -9.89987 36970 ft 415 kts 221°
2026-05-06 16:49 33.22471 -9.94231 36981 ft 416 kts 221°
2026-05-06 16:50 33.17905 -9.98470 36985 ft 417 kts 221°
2026-05-06 16:50 33.13323 -10.02719 36974 ft 418 kts 221°
2026-05-06 16:51 33.08730 -10.06972 36979 ft 418 kts 221°
2026-05-06 16:51 33.04130 -10.11224 36978 ft 418 kts 221°
2026-05-06 16:52 32.99526 -10.15475 36976 ft 419 kts 221°
2026-05-06 16:52 32.94920 -10.19723 36980 ft 419 kts 221°
2026-05-06 16:53 32.90310 -10.23969 36971 ft 419 kts 221°
2026-05-06 16:53 32.85698 -10.28210 36984 ft 420 kts 221°
2026-05-06 16:54 32.81074 -10.32456 36975 ft 420 kts 221°
2026-05-06 16:54 32.76444 -10.36703 36976 ft 421 kts 221°
2026-05-06 16:55 32.71840 -10.40920 36951 ft 421 kts 221°
2026-05-06 16:55 32.67209 -10.45156 36975 ft 420 kts 220°
2026-05-06 16:56 32.62580 -10.49384 36979 ft 420 kts 220°
2026-05-06 16:56 32.57955 -10.53603 36978 ft 419 kts 220°
2026-05-06 16:57 32.53332 -10.57815 36975 ft 419 kts 221°
2026-05-06 16:57 32.48705 -10.62025 36979 ft 420 kts 221°
2026-05-06 16:58 32.44067 -10.66239 36989 ft 421 kts 221°
2026-05-06 16:58 32.39422 -10.70455 36973 ft 421 kts 220°
2026-05-06 16:59 32.34768 -10.74672 36984 ft 422 kts 220°
2026-05-06 16:59 32.30108 -10.78889 36983 ft 422 kts 220°
2026-05-06 17:00 32.25442 -10.83106 36978 ft 422 kts 220°
2026-05-06 17:00 32.20774 -10.87319 36989 ft 422 kts 220°
2026-05-06 17:01 32.16106 -10.91527 36989 ft 422 kts 220°
2026-05-06 17:01 32.11443 -10.95724 36975 ft 422 kts 220°
2026-05-06 17:02 32.06774 -10.99922 36983 ft 422 kts 220°
2026-05-06 17:02 32.02100 -11.04118 36987 ft 423 kts 220°
2026-05-06 17:03 31.97419 -11.08316 36988 ft 423 kts 220°
2026-05-06 17:03 31.92730 -11.12515 36983 ft 424 kts 220°
2026-05-06 17:04 31.88034 -11.16714 36994 ft 424 kts 220°
2026-05-06 17:04 31.83335 -11.20911 36972 ft 424 kts 220°
2026-05-06 17:05 31.78646 -11.25093 36979 ft 423 kts 220°
2026-05-06 17:05 31.73958 -11.29269 36976 ft 423 kts 220°
2026-05-06 17:06 31.69271 -11.33439 36975 ft 423 kts 220°
2026-05-06 17:06 31.64604 -11.37586 36994 ft 423 kts 220°
2026-05-06 17:07 31.59899 -11.41760 36990 ft 425 kts 220°
2026-05-06 17:07 31.55179 -11.45944 36969 ft 426 kts 220°
2026-05-06 17:08 31.50448 -11.50131 36986 ft 426 kts 220°
2026-05-06 17:08 31.45707 -11.54321 36984 ft 427 kts 220°
2026-05-06 17:09 31.40961 -11.58511 36981 ft 427 kts 220°
2026-05-06 17:09 31.36211 -11.62697 36986 ft 427 kts 220°
2026-05-06 17:10 31.31461 -11.66880 36983 ft 427 kts 220°
2026-05-06 17:10 31.26711 -11.71056 36987 ft 427 kts 220°
2026-05-06 17:11 31.21972 -11.75217 36982 ft 426 kts 220°
2026-05-06 17:11 31.17237 -11.79370 36986 ft 425 kts 220°
2026-05-06 17:12 31.12508 -11.83512 36987 ft 425 kts 220°
2026-05-06 17:12 31.07783 -11.87646 36987 ft 424 kts 220°
2026-05-06 17:13 31.03059 -11.91773 36991 ft 424 kts 220°
2026-05-06 17:13 30.98330 -11.95900 36988 ft 424 kts 220°
2026-05-06 17:14 30.93610 -12.00013 36991 ft 423 kts 220°
2026-05-06 17:14 30.88906 -12.04107 36984 ft 421 kts 220°
2026-05-06 17:15 30.84215 -12.08185 36989 ft 421 kts 220°
2026-05-06 17:15 30.79508 -12.12273 37000 ft 423 kts 220°
2026-05-06 17:16 30.74779 -12.16374 37001 ft 425 kts 220°
2026-05-06 17:16 30.70022 -12.20493 37000 ft 427 kts 220°
2026-05-06 17:17 30.65241 -12.24629 36978 ft 429 kts 219°
2026-05-06 17:17 30.60453 -12.28765 36989 ft 429 kts 219°
2026-05-06 17:18 30.55665 -12.32894 36996 ft 428 kts 219°
2026-05-06 17:18 30.50914 -12.36988 36998 ft 428 kts 219°
2026-05-06 17:19 30.46111 -12.41121 36995 ft 427 kts 220°
2026-05-06 17:19 30.41363 -12.45206 37000 ft 428 kts 220°
2026-05-06 17:20 30.36566 -12.49324 37008 ft 430 kts 220°
2026-05-06 17:20 30.31750 -12.53452 37004 ft 431 kts 219°
2026-05-06 17:21 30.26924 -12.57584 36996 ft 432 kts 219°
2026-05-06 17:21 30.22093 -12.61717 37000 ft 432 kts 219°
2026-05-06 17:22 30.17258 -12.65847 37000 ft 432 kts 219°
2026-05-06 17:22 30.13211 -12.69301 36998 ft 432 kts 219°
2026-05-06 17:23 30.08378 -12.73423 36999 ft 432 kts 219°
2026-05-06 17:23 30.03585 -12.77519 36999 ft 431 kts 220°
2026-05-06 17:24 29.98753 -12.81649 37010 ft 433 kts 220°
2026-05-06 17:24 29.93902 -12.85789 37008 ft 435 kts 220°
2026-05-06 17:25 29.89028 -12.89943 37009 ft 437 kts 220°
2026-05-06 17:25 29.84135 -12.94108 37004 ft 439 kts 220°
2026-05-06 17:26 29.79211 -12.98293 37002 ft 440 kts 219°
2026-05-06 17:26 29.74280 -13.02478 36981 ft 440 kts 219°
2026-05-06 17:27 29.69354 -13.06653 36995 ft 439 kts 219°
2026-05-06 17:27 29.64446 -13.10809 36999 ft 438 kts 219°
2026-05-06 17:28 29.59544 -13.14957 36992 ft 438 kts 220°
2026-05-06 17:28 29.54635 -13.19104 37005 ft 438 kts 220°
2026-05-06 17:29 29.49705 -13.23264 37008 ft 440 kts 220°
2026-05-06 17:29 29.44760 -13.27432 37008 ft 442 kts 219°
2026-05-06 17:30 29.39800 -13.31607 37003 ft 442 kts 219°
2026-05-06 17:30 29.34837 -13.35778 37001 ft 442 kts 219°
2026-05-06 17:31 29.29875 -13.39944 37003 ft 442 kts 219°
2026-05-06 17:31 29.24920 -13.44100 36999 ft 442 kts 219°
2026-05-06 17:32 29.19964 -13.48253 36996 ft 441 kts 219°
2026-05-06 17:32 29.15041 -13.52460 36991 ft 441 kts 223°
2026-05-06 17:33 29.10398 -13.57029 37007 ft 441 kts 225°
2026-05-06 17:33 29.05796 -13.61685 36999 ft 442 kts 224°
2026-05-06 17:34 29.01191 -13.66286 36995 ft 443 kts 224°
2026-05-06 17:34 28.96527 -13.70896 36994 ft 444 kts 224°
2026-05-06 17:35 28.91843 -13.75507 36985 ft 444 kts 224°
2026-05-06 17:35 28.87162 -13.80107 36621 ft 445 kts 224°
2026-05-06 17:36 28.82496 -13.84689 35529 ft 442 kts 224°
2026-05-06 17:36 28.80166 -13.86976 34880 ft 442 kts 224°
2026-05-06 17:36 28.77830 -13.89267 34251 ft 444 kts 224°
2026-05-06 17:36 28.75482 -13.91568 33493 ft 447 kts 224°
2026-05-06 17:37 28.73122 -13.93878 32781 ft 448 kts 224°
2026-05-06 17:37 28.70757 -13.96194 32071 ft 449 kts 224°
2026-05-06 17:37 28.68386 -13.98515 31350 ft 450 kts 224°
2026-05-06 17:37 28.66011 -14.00839 30745 ft 449 kts 224°
2026-05-06 17:38 28.63651 -14.03143 30261 ft 445 kts 224°
2026-05-06 17:38 28.61309 -14.05429 29684 ft 442 kts 224°
2026-05-06 17:38 28.58992 -14.07690 29131 ft 437 kts 224°
2026-05-06 17:38 28.56696 -14.09929 28620 ft 432 kts 224°
2026-05-06 17:39 28.54426 -14.12142 28099 ft 428 kts 224°
2026-05-06 17:39 28.52177 -14.14333 27614 ft 426 kts 224°
2026-05-06 17:39 28.49911 -14.16544 27092 ft 432 kts 224°
2026-05-06 17:39 28.47618 -14.18778 26585 ft 434 kts 224°
2026-05-06 17:40 28.45333 -14.20999 26073 ft 430 kts 224°
2026-05-06 17:40 28.43074 -14.23194 25560 ft 425 kts 224°
2026-05-06 17:40 28.40840 -14.25364 25069 ft 422 kts 224°
2026-05-06 17:40 28.38618 -14.27518 24580 ft 418 kts 224°
2026-05-06 17:41 28.36412 -14.29656 24081 ft 415 kts 224°
2026-05-06 17:41 28.34220 -14.31780 23587 ft 413 kts 223°
2026-05-06 17:41 28.32039 -14.33891 23015 ft 411 kts 223°
2026-05-06 17:41 28.29875 -14.35985 22493 ft 407 kts 223°
2026-05-06 17:42 28.27760 -14.38032 22007 ft 403 kts 223°
2026-05-06 17:42 28.25636 -14.40085 21513 ft 400 kts 223°
2026-05-06 17:42 28.23529 -14.42122 21029 ft 396 kts 223°
2026-05-06 17:42 28.21437 -14.44143 20547 ft 394 kts 223°
2026-05-06 17:43 28.19359 -14.46150 20077 ft 391 kts 223°
2026-05-06 17:43 28.17293 -14.48145 19600 ft 389 kts 223°
2026-05-06 17:43 28.15233 -14.50132 19121 ft 387 kts 223°
2026-05-06 17:43 28.13192 -14.52100 18672 ft 385 kts 223°
2026-05-06 17:44 28.11157 -14.54062 18188 ft 383 kts 223°
2026-05-06 17:44 28.09130 -14.56015 17661 ft 381 kts 223°
2026-05-06 17:44 28.07111 -14.57958 17161 ft 379 kts 223°
2026-05-06 17:44 28.05112 -14.59883 16686 ft 376 kts 223°
2026-05-06 17:45 28.03126 -14.61793 16222 ft 373 kts 223°
2026-05-06 17:45 28.01153 -14.63689 15763 ft 371 kts 223°
2026-05-06 17:45 27.99211 -14.65596 15307 ft 368 kts 226°
2026-05-06 17:45 27.97410 -14.67630 14858 ft 365 kts 229°
2026-05-06 17:46 27.95676 -14.69720 14410 ft 363 kts 230°
2026-05-06 17:46 27.93961 -14.71813 13959 ft 362 kts 230°
2026-05-06 17:46 27.92248 -14.73890 13486 ft 360 kts 229°
2026-05-06 17:46 27.90533 -14.75951 12996 ft 359 kts 229°
2026-05-06 17:47 27.88818 -14.77995 12536 ft 357 kts 229°
2026-05-06 17:47 27.87108 -14.80023 12090 ft 355 kts 229°
2026-05-06 17:47 27.85414 -14.82026 11643 ft 350 kts 229°
2026-05-06 17:47 27.83754 -14.83983 11210 ft 340 kts 229°
2026-05-06 17:48 27.82162 -14.85857 11074 ft 321 kts 228°
2026-05-06 17:48 27.80652 -14.87634 10925 ft 306 kts 228°
2026-05-06 17:48 27.79216 -14.89325 10799 ft 291 kts 229°
2026-05-06 17:48 27.77825 -14.90964 10691 ft 286 kts 229°
2026-05-06 17:49 27.76467 -14.92565 10566 ft 281 kts 229°
2026-05-06 17:49 27.75108 -14.94168 10488 ft 284 kts 229°
2026-05-06 17:49 27.73723 -14.95798 10363 ft 291 kts 229°
2026-05-06 17:49 27.72324 -14.97444 10107 ft 290 kts 230°
2026-05-06 17:50 27.71268 -14.99315 9742 ft 281 kts 258°
2026-05-06 17:50 27.71203 -15.01479 9392 ft 276 kts 276°
2026-05-06 17:50 27.71356 -15.03645 8948 ft 277 kts 275°
2026-05-06 17:50 27.71476 -15.05803 8491 ft 273 kts 275°
2026-05-06 17:51 27.71587 -15.07928 8032 ft 271 kts 274°
2026-05-06 17:51 27.71691 -15.10017 7598 ft 268 kts 274°
2026-05-06 17:51 27.71794 -15.12134 7158 ft 266 kts 274°
2026-05-06 17:51 27.71892 -15.14186 6776 ft 263 kts 275°
2026-05-06 17:52 27.71988 -15.16220 6459 ft 257 kts 274°
2026-05-06 17:52 27.72083 -15.18219 6069 ft 254 kts 275°
2026-05-06 17:52 27.72177 -15.20212 5617 ft 255 kts 275°
2026-05-06 17:52 27.72270 -15.22210 5130 ft 256 kts 276°
2026-05-06 17:53 27.72364 -15.24220 4684 ft 256 kts 275°
2026-05-06 17:53 27.72454 -15.26185 4443 ft 247 kts 276°
2026-05-06 17:53 27.72542 -15.28115 4188 ft 246 kts 276°
2026-05-06 17:53 27.72631 -15.30028 3963 ft 241 kts 276°
2026-05-06 17:54 27.72715 -15.31873 3816 ft 230 kts 276°
2026-05-06 17:54 27.72795 -15.33634 3686 ft 219 kts 276°
2026-05-06 17:54 27.73146 -15.35220 3567 ft 202 kts 302°
2026-05-06 17:54 27.73826 -15.36604 3491 ft 202 kts 301°
2026-05-06 17:55 27.74475 -15.38009 3409 ft 201 kts 301°
2026-05-06 17:55 27.75105 -15.39379 3338 ft 192 kts 300°
2026-05-06 17:55 27.75706 -15.40685 3220 ft 184 kts 302°
2026-05-06 17:55 27.76414 -15.41848 3086 ft 176 kts 316°
2026-05-06 17:56 27.77254 -15.42838 2976 ft 173 kts 322°
2026-05-06 17:56 27.78161 -15.43740 2882 ft 175 kts 324°
2026-05-06 17:56 27.79229 -15.44340 2697 ft 171 kts
2026-05-06 17:56 27.80364 -15.44077 2506 ft 166 kts 15°
2026-05-06 17:57 27.81488 -15.43741 2297 ft 168 kts 16°
2026-05-06 17:57 27.82613 -15.43338 2054 ft 169 kts 19°
2026-05-06 17:57 27.83703 -15.42874 1824 ft 166 kts 21°
2026-05-06 17:57 27.84761 -15.42405 1605 ft 160 kts 22°
2026-05-06 17:58 27.85764 -15.41960 1412 ft 152 kts 21°
2026-05-06 17:58 27.86725 -15.41543 1441 ft 142 kts 22°
2026-05-06 17:58 27.87644 -15.41110 1133 ft 145 kts 22°
2026-05-06 17:58 27.88573 -15.40691 869 ft 142 kts 21°
2026-05-06 17:59 27.89484 -15.40297 662 ft 140 kts 21°
2026-05-06 17:59 27.90414 -15.39876 468 ft 145 kts 21°
2026-05-06 17:59 27.91350 -15.39476 264 ft 143 kts 22°
2026-05-06 17:59 27.92263 -15.39066 88 ft 136 kts 21°
2026-05-06 18:00 27.93065 -15.38714 58 ft 108 kts 21°
2026-05-06 18:00 27.93542 -15.38502 56 ft 33 kts 21°
2026-05-06 18:00 27.93745 -15.38432 59 ft 29 kts 11°
2026-05-06 18:00 27.93923 -15.38438 62 ft 12 kts 349°
2026-05-06 18:01 27.94006 -15.38462 71 ft 12 kts 333°
2026-05-06 18:01 27.94052 -15.38512 65 ft 6 kts 291°
2026-05-06 18:01 27.94068 -15.38557 74 ft 6 kts 291°
2026-05-06 18:01 27.94073 -15.38604 72 ft 6 kts 264°
2026-05-06 18:02 27.94045 -15.38637 81 ft 6 kts 208°
2026-05-06 18:02 27.94006 -15.38655 83 ft 7 kts 202°
2026-05-06 18:02 27.93948 -15.38680 82 ft 12 kts 201°
2026-05-06 18:02 27.93869 -15.38715 84 ft 10 kts 201°
2026-05-06 18:03 27.93831 -15.38745 83 ft 7 kts 252°
2026-05-06 18:03 27.93848 -15.38793 87 ft 7 kts 290°
2026-05-06 18:03 27.93856 -15.38817 87 ft 2 kts 290°
2026-05-06 18:03 27.93857 -15.38821 87 ft 0 kts 290°